Time,TemperatureF,DewpointF,PressureIn,WindDirection,WindDirectionDegrees,WindSpeedMPH,WindSpeedGustMPH,Humidity,HourlyPrecipIn,Conditions,Clouds,dailyrainin,SoftwareType,DateUTC
2013-03-08 00:05:00,46.7,42.7,29.85,NNW,348,0.0,1.0,86,0.00,,---,0.00,VWS V14.01,2013-03-08 08:05:00,
2013-03-08 00:10:00,46.7,42.7,29.83,NNW,348,0.0,1.0,86,0.00,,---,0.00,VWS V14.01,2013-03-08 08:10:00,
2013-03-08 00:15:00,46.7,42.7,29.84,NNW,348,0.0,1.0,86,0.00,,---,0.00,VWS V14.01,2013-03-08 08:15:00,
2013-03-08 00:20:00,46.7,43.0,29.86,NNW,348,0.0,1.0,87,0.00,,---,0.00,VWS V14.01,2013-03-08 08:20:00,
2013-03-08 00:25:00,46.9,42.9,29.88,NNW,348,0.0,1.0,86,0.00,,---,0.00,VWS V14.01,2013-03-08 08:25:00,
2013-03-08 00:30:00,46.8,43.1,29.88,NNW,348,0.0,0.0,87,0.00,,---,0.00,VWS V14.01,2013-03-08 08:30:00,
2013-03-08 00:35:00,46.8,43.1,29.85,NNW,348,0.0,0.0,87,0.00,,---,0.00,VWS V14.01,2013-03-08 08:35:00,
2013-03-08 00:40:00,46.9,42.9,29.86,NNW,348,0.0,0.0,86,0.00,,---,0.00,VWS V14.01,2013-03-08 08:40:00,
2013-03-08 00:45:00,46.9,43.2,29.85,NNW,348,0.0,0.0,87,0.00,,---,0.00,VWS V14.01,2013-03-08 08:45:00,
2013-03-08 00:50:00,46.8,43.1,29.82,NNW,348,0.0,0.0,87,0.00,,---,0.00,VWS V14.01,2013-03-08 08:50:00,
2013-03-08 00:55:00,46.9,43.2,29.84,NNW,348,0.0,0.0,87,0.00,,---,0.00,VWS V14.01,2013-03-08 08:55:00,
2013-03-08 01:00:00,46.7,43.0,29.87,NNW,348,0.0,1.0,87,0.00,,---,0.00,VWS V14.01,2013-03-08 09:00:00,
2013-03-08 01:05:00,46.8,43.1,29.83,NNW,348,0.0,3.0,87,0.00,,---,0.00,VWS V14.01,2013-03-08 09:05:00,
2013-03-08 01:11:00,46.7,43.0,29.83,NNW,348,0.0,3.0,87,0.00,,---,0.00,VWS V14.01,2013-03-08 09:11:00,
2013-03-08 01:16:00,46.7,43.0,29.83,NNW,348,0.0,3.0,87,0.00,,---,0.00,VWS V14.01,2013-03-08 09:16:00,
2013-03-08 01:21:00,46.5,42.8,29.83,NNW,348,0.0,3.0,87,0.00,,---,0.00,VWS V14.01,2013-03-08 09:21:00,
2013-03-08 01:26:00,46.7,43.0,29.83,NNW,348,0.0,3.0,87,0.00,,---,0.00,VWS V14.01,2013-03-08 09:26:00,
2013-03-08 01:31:00,46.4,42.8,29.85,NNW,348,0.0,1.0,87,0.00,,---,0.00,VWS V14.01,2013-03-08 09:31:00,
2013-03-08 01:36:00,46.3,42.7,29.85,NNW,348,0.0,1.0,87,0.00,,---,0.00,VWS V14.01,2013-03-08 09:36:00,
2013-03-08 01:41:00,46.3,42.7,29.85,NNW,348,0.0,1.0,87,0.00,,---,0.00,VWS V14.01,2013-03-08 09:41:00,
2013-03-08 01:46:00,46.1,42.5,29.83,NNW,348,0.0,2.0,87,0.00,,---,0.00,VWS V14.01,2013-03-08 09:46:00,
2013-03-08 01:51:00,46.1,42.8,29.84,NNW,348,1.0,3.0,88,0.00,,---,0.00,VWS V14.01,2013-03-08 09:51:00,
2013-03-08 01:56:00,46.1,42.8,29.83,NNW,348,0.0,3.0,88,0.00,,---,0.00,VWS V14.01,2013-03-08 09:56:00,
2013-03-08 02:01:00,46.0,42.0,29.82,NNW,348,0.0,2.0,86,0.00,,---,0.00,VWS V14.01,2013-03-08 10:01:00,
2013-03-08 02:06:00,45.7,42.1,29.83,NNW,348,0.0,2.0,87,0.00,,---,0.00,VWS V14.01,2013-03-08 10:06:00,
2013-03-08 02:11:00,45.6,42.0,29.83,NNW,348,3.0,4.0,87,0.00,,---,0.00,VWS V14.01,2013-03-08 10:11:00,
2013-03-08 02:16:00,45.4,41.5,29.83,NNW,348,3.0,5.0,86,0.00,,---,0.00,VWS V14.01,2013-03-08 10:16:00,
2013-03-08 02:21:00,45.3,41.1,29.85,NNW,348,2.0,5.0,85,0.00,,---,0.00,VWS V14.01,2013-03-08 10:21:00,
2013-03-08 02:27:00,45.2,40.7,29.83,NNW,348,3.0,5.0,84,0.00,,---,0.00,VWS V14.01,2013-03-08 10:27:00,
2013-03-08 02:32:00,45.0,40.2,29.83,NNW,348,2.0,5.0,83,0.00,,---,0.00,VWS V14.01,2013-03-08 10:32:00,
2013-03-08 02:37:00,44.8,40.0,29.81,NNW,348,2.0,5.0,83,0.00,,---,0.00,VWS V14.01,2013-03-08 10:37:00,
2013-03-08 02:42:00,44.7,39.9,29.83,NNW,348,1.0,5.0,83,0.00,,---,0.00,VWS V14.01,2013-03-08 10:42:00,
2013-03-08 02:47:00,44.8,39.7,29.85,NNW,348,2.0,5.0,82,0.00,,---,0.00,VWS V14.01,2013-03-08 10:47:00,
2013-03-08 02:52:00,44.6,39.5,29.83,NNW,348,1.0,5.0,82,0.00,,---,0.00,VWS V14.01,2013-03-08 10:52:00,
2013-03-08 02:57:00,44.6,39.5,29.84,NNW,348,2.0,5.0,82,0.00,,---,0.00,VWS V14.01,2013-03-08 10:57:00,
2013-03-08 03:02:00,44.5,39.7,29.84,NNW,348,0.0,1.0,83,0.00,,---,0.00,VWS V14.01,2013-03-08 11:02:00,
2013-03-08 03:07:00,44.5,39.7,29.83,NNW,348,2.0,2.0,83,0.00,,---,0.00,VWS V14.01,2013-03-08 11:07:00,
2013-03-08 03:12:00,44.4,39.6,29.81,NNW,348,0.0,3.0,83,0.00,,---,0.00,VWS V14.01,2013-03-08 11:12:00,
2013-03-08 03:17:00,44.4,39.6,29.83,NNW,348,1.0,3.0,83,0.00,,---,0.00,VWS V14.01,2013-03-08 11:17:00,
2013-03-08 03:22:00,44.2,40.0,29.81,NNW,348,0.0,3.0,85,0.00,,---,0.00,VWS V14.01,2013-03-08 11:22:00,
2013-03-08 03:27:00,44.1,39.6,29.82,NNW,348,0.0,3.0,84,0.00,,---,0.00,VWS V14.01,2013-03-08 11:27:00,
2013-03-08 03:32:00,44.1,39.9,29.81,NNW,348,0.0,2.0,85,0.00,,---,0.00,VWS V14.01,2013-03-08 11:32:00,
2013-03-08 03:37:00,44.1,39.9,29.83,NNW,348,0.0,2.0,85,0.00,,---,0.00,VWS V14.01,2013-03-08 11:37:00,
2013-03-08 03:42:00,44.1,39.9,29.82,NNW,348,0.0,2.0,85,0.00,,---,0.00,VWS V14.01,2013-03-08 11:42:00,
2013-03-08 03:47:00,43.9,39.7,29.80,NNW,348,0.0,2.0,85,0.00,,---,0.00,VWS V14.01,2013-03-08 11:47:00,
2013-03-08 03:53:00,43.9,39.7,29.82,NNW,348,0.0,2.0,85,0.00,,---,0.00,VWS V14.01,2013-03-08 11:53:00,
2013-03-08 03:58:00,43.9,40.0,29.81,NNW,348,0.0,2.0,86,0.00,,---,0.00,VWS V14.01,2013-03-08 11:58:00,
2013-03-08 04:03:00,43.9,40.0,29.81,NNW,348,0.0,0.0,86,0.00,,---,0.00,VWS V14.01,2013-03-08 12:03:00,
2013-03-08 04:08:00,43.8,39.9,29.82,NNW,348,0.0,0.0,86,0.00,,---,0.00,VWS V14.01,2013-03-08 12:08:00,
2013-03-08 04:13:00,43.9,40.0,29.83,NNW,348,1.0,1.0,86,0.00,,---,0.00,VWS V14.01,2013-03-08 12:13:00,
2013-03-08 04:18:00,43.8,39.9,29.82,NNW,348,0.0,1.0,86,0.00,,---,0.00,VWS V14.01,2013-03-08 12:18:00,
2013-03-08 04:23:00,43.8,39.9,29.81,NNW,348,0.0,1.0,86,0.00,,---,0.00,VWS V14.01,2013-03-08 12:23:00,
2013-03-08 04:28:00,43.7,39.8,29.82,NNW,348,0.0,1.0,86,0.00,,---,0.00,VWS V14.01,2013-03-08 12:28:00,
2013-03-08 04:33:00,43.6,39.7,29.83,NNW,348,0.0,0.0,86,0.00,,---,0.00,VWS V14.01,2013-03-08 12:33:00,
2013-03-08 04:38:00,43.5,39.6,29.82,NNW,348,1.0,3.0,86,0.00,,---,0.00,VWS V14.01,2013-03-08 12:38:00,
2013-03-08 04:43:00,43.3,39.4,29.83,NNW,348,3.0,3.0,86,0.00,,---,0.00,VWS V14.01,2013-03-08 12:43:00,
2013-03-08 04:48:00,43.2,39.3,29.84,NNW,348,3.0,4.0,86,0.00,,---,0.00,VWS V14.01,2013-03-08 12:48:00,
2013-03-08 04:53:00,43.2,39.6,29.82,NNW,348,2.0,5.0,87,0.00,,---,0.00,VWS V14.01,2013-03-08 12:53:00,
2013-03-08 04:58:00,43.1,39.2,29.82,NNW,348,3.0,6.0,86,0.00,,---,0.00,VWS V14.01,2013-03-08 12:58:00,
2013-03-08 05:03:00,43.2,39.3,29.86,NNW,348,2.0,4.0,86,0.00,,---,0.00,VWS V14.01,2013-03-08 13:03:00,
2013-03-08 05:08:00,43.2,39.3,29.85,NNW,348,2.0,5.0,86,0.00,,---,0.00,VWS V14.01,2013-03-08 13:08:00,
2013-03-08 05:14:00,43.1,38.9,29.84,NNW,348,3.0,5.0,85,0.00,,---,0.00,VWS V14.01,2013-03-08 13:14:00,
2013-03-08 05:19:00,43.2,38.7,29.83,NNW,348,4.0,5.0,84,0.00,,---,0.00,VWS V14.01,2013-03-08 13:19:00,
2013-03-08 05:24:00,43.2,38.7,29.86,NNW,348,2.0,5.0,84,0.00,,---,0.00,VWS V14.01,2013-03-08 13:24:00,
2013-03-08 05:29:00,43.3,38.8,29.84,NNW,348,2.0,5.0,84,0.00,,---,0.00,VWS V14.01,2013-03-08 13:29:00,
2013-03-08 05:34:00,43.5,39.0,29.84,NNW,348,2.0,5.0,84,0.00,,---,0.00,VWS V14.01,2013-03-08 13:34:00,
2013-03-08 05:39:00,43.4,38.9,29.85,NNW,348,1.0,5.0,84,0.00,,---,0.00,VWS V14.01,2013-03-08 13:39:00,
2013-03-08 05:44:00,43.3,38.8,29.85,NNW,348,1.0,5.0,84,0.00,,---,0.00,VWS V14.01,2013-03-08 13:44:00,
2013-03-08 05:49:00,43.0,38.5,29.85,NNW,348,2.0,5.0,84,0.00,,---,0.00,VWS V14.01,2013-03-08 13:49:00,
2013-03-08 05:54:00,42.7,38.5,29.84,NNW,348,2.0,5.0,85,0.00,,---,0.00,VWS V14.01,2013-03-08 13:54:00,
2013-03-08 05:59:00,42.7,38.5,29.86,NNW,348,0.0,5.0,85,0.00,,---,0.00,VWS V14.01,2013-03-08 13:59:00,
2013-03-08 06:04:00,42.5,38.3,29.85,NNW,348,1.0,2.0,85,0.00,,---,0.00,VWS V14.01,2013-03-08 14:04:00,
2013-03-08 06:09:00,42.4,38.2,29.86,NNW,348,1.0,2.0,85,0.00,,---,0.00,VWS V14.01,2013-03-08 14:09:00,
2013-03-08 06:14:00,42.2,38.3,29.84,NNW,348,0.0,4.0,86,0.00,,---,0.00,VWS V14.01,2013-03-08 14:14:00,
2013-03-08 06:19:00,42.1,38.2,29.84,NNW,348,1.0,4.0,86,0.00,,---,0.00,VWS V14.01,2013-03-08 14:19:00,
2013-03-08 06:24:00,41.7,37.5,29.85,NNW,348,0.0,4.0,85,0.00,,---,0.00,VWS V14.01,2013-03-08 14:24:00,
2013-03-08 06:29:00,41.7,37.8,29.83,NNW,348,0.0,4.0,86,0.00,,---,0.00,VWS V14.01,2013-03-08 14:29:00,
2013-03-08 06:34:00,41.6,38.0,29.86,NNW,348,0.0,2.0,87,0.00,,---,0.00,VWS V14.01,2013-03-08 14:34:00,
2013-03-08 06:40:00,41.5,37.6,29.85,NNW,348,0.0,2.0,86,0.00,,---,0.00,VWS V14.01,2013-03-08 14:40:00,
2013-03-08 06:45:00,41.3,37.4,29.83,NNW,348,0.0,2.0,86,0.00,,---,0.00,VWS V14.01,2013-03-08 14:45:00,
2013-03-08 06:50:00,41.4,37.8,29.89,NNW,348,2.0,5.0,87,0.00,,---,0.00,VWS V14.01,2013-03-08 14:50:00,
2013-03-08 06:55:00,41.4,37.8,29.84,NNW,348,2.0,5.0,87,0.00,,---,0.00,VWS V14.01,2013-03-08 14:55:00,
2013-03-08 07:00:00,41.3,38.0,29.85,NNW,348,2.0,5.0,88,0.00,,---,0.00,VWS V14.01,2013-03-08 15:00:00,
2013-03-08 07:05:00,41.3,38.0,29.88,NNW,348,3.0,5.0,88,0.00,,---,0.00,VWS V14.01,2013-03-08 15:05:00,
2013-03-08 07:10:00,41.4,38.1,29.83,NNW,348,5.0,6.0,88,0.00,,---,0.00,VWS V14.01,2013-03-08 15:10:00,
2013-03-08 07:15:00,41.5,38.2,29.86,NNW,348,3.0,6.0,88,0.00,,---,0.00,VWS V14.01,2013-03-08 15:15:00,
2013-03-08 07:20:00,41.6,38.3,29.85,NNW,348,3.0,6.0,88,0.00,,---,0.00,VWS V14.01,2013-03-08 15:20:00,
2013-03-08 07:25:00,41.9,38.0,29.83,NNW,348,1.0,6.0,86,0.00,,---,0.00,VWS V14.01,2013-03-08 15:25:00,
2013-03-08 07:30:00,42.1,38.2,29.86,NNW,348,2.0,2.0,86,0.00,,---,0.00,VWS V14.01,2013-03-08 15:30:00,
2013-03-08 07:35:00,42.3,38.4,29.87,NNW,348,0.0,3.0,86,0.00,,---,0.00,VWS V14.01,2013-03-08 15:35:00,
2013-03-08 07:40:00,42.6,38.1,29.85,NNW,348,3.0,4.0,84,0.00,,---,0.00,VWS V14.01,2013-03-08 15:40:00,
2013-03-08 07:45:00,43.0,37.6,29.87,NNW,348,2.0,5.0,81,0.00,,---,0.00,VWS V14.01,2013-03-08 15:45:00,
2013-03-08 07:50:00,43.6,37.8,29.84,NNW,348,1.0,5.0,80,0.00,,---,0.00,VWS V14.01,2013-03-08 15:50:00,
2013-03-08 07:55:00,44.0,38.2,29.86,NNW,348,0.0,5.0,80,0.00,,---,0.00,VWS V14.01,2013-03-08 15:55:00,
2013-03-08 08:00:00,44.5,38.7,29.88,NNW,348,3.0,3.0,80,0.00,,---,0.00,VWS V14.01,2013-03-08 16:00:00,
2013-03-08 08:05:00,44.8,38.4,29.86,NNW,348,0.0,3.0,78,0.00,,---,0.00,VWS V14.01,2013-03-08 16:05:00,
2013-03-08 08:11:00,45.1,38.7,29.86,NNW,348,0.0,3.0,78,0.00,,---,0.00,VWS V14.01,2013-03-08 16:11:00,
2013-03-08 08:16:00,45.5,38.7,29.87,NNW,348,0.0,3.0,77,0.00,,---,0.00,VWS V14.01,2013-03-08 16:16:00,
2013-03-08 08:21:00,45.8,38.3,29.86,NNW,348,0.0,3.0,75,0.00,,---,0.00,VWS V14.01,2013-03-08 16:21:00,
2013-03-08 08:26:00,46.2,38.4,29.85,NNW,348,0.0,3.0,74,0.00,,---,0.00,VWS V14.01,2013-03-08 16:26:00,
2013-03-08 08:31:00,46.5,38.3,29.84,NNW,348,0.0,0.0,73,0.00,,---,0.00,VWS V14.01,2013-03-08 16:31:00,
2013-03-08 08:36:00,47.1,39.9,29.86,NNW,348,0.0,1.0,76,0.00,,---,0.00,VWS V14.01,2013-03-08 16:36:00,
2013-03-08 08:41:00,48.2,41.0,29.86,NNW,348,0.0,1.0,76,0.00,,---,0.00,VWS V14.01,2013-03-08 16:41:00,
2013-03-08 08:46:00,49.1,41.5,29.87,NNW,348,1.0,1.0,75,0.00,,---,0.00,VWS V14.01,2013-03-08 16:46:00,
2013-03-08 08:51:00,49.4,39.7,29.86,NNW,348,2.0,3.0,69,0.00,,---,0.00,VWS V14.01,2013-03-08 16:51:00,
2013-03-08 08:56:00,49.4,39.3,29.84,NNW,348,1.0,3.0,68,0.00,,---,0.00,VWS V14.01,2013-03-08 16:56:00,
2013-03-08 09:01:00,49.9,40.5,29.88,NNW,348,2.0,2.0,70,0.00,,---,0.00,VWS V14.01,2013-03-08 17:01:00,
2013-03-08 09:06:00,50.4,40.6,29.88,NNW,348,3.0,3.0,69,0.00,,---,0.00,VWS V14.01,2013-03-08 17:06:00,
2013-03-08 09:11:00,50.7,39.8,29.88,NNW,348,0.0,4.0,66,0.00,,---,0.00,VWS V14.01,2013-03-08 17:11:00,
2013-03-08 09:16:00,50.8,39.1,29.86,NNW,348,1.0,4.0,64,0.00,,---,0.00,VWS V14.01,2013-03-08 17:16:00,
2013-03-08 09:21:00,50.9,40.0,29.86,NNW,348,0.0,5.0,66,0.00,,---,0.00,VWS V14.01,2013-03-08 17:21:00,
2013-03-08 09:26:00,51.1,40.2,29.85,NNW,348,1.0,5.0,66,0.00,,---,0.00,VWS V14.01,2013-03-08 17:26:00,
2013-03-08 09:31:00,51.3,40.0,29.90,NNW,348,4.0,7.0,65,0.00,,---,0.00,VWS V14.01,2013-03-08 17:31:00,
2013-03-08 09:37:00,51.6,40.2,29.87,NNW,348,0.0,7.0,65,0.00,,---,0.00,VWS V14.01,2013-03-08 17:37:00,
2013-03-08 09:42:00,52.0,40.6,29.89,NNW,348,2.0,7.0,65,0.00,,---,0.00,VWS V14.01,2013-03-08 17:42:00,
2013-03-08 09:47:00,52.4,41.0,29.88,NNW,348,1.0,7.0,65,0.00,,---,0.00,VWS V14.01,2013-03-08 17:47:00,
2013-03-08 09:52:00,52.8,41.0,29.87,NNW,348,0.0,7.0,64,0.00,,---,0.00,VWS V14.01,2013-03-08 17:52:00,
2013-03-08 09:57:00,53.2,41.0,29.89,NNW,348,2.0,7.0,63,0.00,,---,0.00,VWS V14.01,2013-03-08 17:57:00,
2013-03-08 10:02:00,53.7,41.0,29.89,NNW,348,2.0,3.0,62,0.00,,---,0.00,VWS V14.01,2013-03-08 18:02:00,
2013-03-08 10:07:00,53.9,40.3,29.89,NNW,348,3.0,6.0,60,0.00,,---,0.00,VWS V14.01,2013-03-08 18:07:00,
2013-03-08 10:12:00,54.0,41.3,29.89,NW,319,1.0,6.0,62,0.00,,---,0.00,VWS V14.01,2013-03-08 18:12:00,
2013-03-08 10:17:00,54.4,41.7,29.85,NW,319,4.0,7.0,62,0.00,,---,0.00,VWS V14.01,2013-03-08 18:17:00,
2013-03-08 10:22:00,54.8,41.6,29.90,SW,217,7.0,8.0,61,0.00,,---,0.00,VWS V14.01,2013-03-08 18:22:00,
2013-03-08 10:27:00,55.1,41.9,29.88,NNW,337,3.0,8.0,61,0.00,,---,0.00,VWS V14.01,2013-03-08 18:27:00,
2013-03-08 10:32:00,55.3,41.2,29.89,SW,219,3.0,9.0,59,0.00,,---,0.00,VWS V14.01,2013-03-08 18:32:00,
2013-03-08 10:37:00,55.4,41.8,29.86,WSW,237,0.0,9.0,60,0.00,,---,0.00,VWS V14.01,2013-03-08 18:37:00,
2013-03-08 10:42:00,55.6,41.1,29.86,WNW,292,3.0,9.0,58,0.00,,---,0.00,VWS V14.01,2013-03-08 18:42:00,
2013-03-08 10:48:00,55.8,41.7,29.86,West,281,6.0,9.0,59,0.00,,---,0.00,VWS V14.01,2013-03-08 18:48:00,
2013-03-08 10:53:00,55.9,40.9,29.89,WSW,237,4.0,9.0,57,0.00,,---,0.00,VWS V14.01,2013-03-08 18:53:00,
2013-03-08 10:58:00,56.1,40.2,29.90,West,263,7.0,9.0,55,0.00,,---,0.00,VWS V14.01,2013-03-08 18:58:00,
2013-03-08 11:03:00,56.6,42.5,29.85,NW,317,2.0,5.0,59,0.00,,---,0.00,VWS V14.01,2013-03-08 19:03:00,
2013-03-08 11:08:00,56.9,40.9,29.86,SW,223,6.0,9.0,55,0.00,,---,0.00,VWS V14.01,2013-03-08 19:08:00,
2013-03-08 11:13:00,57.4,41.4,29.88,NW,314,3.0,9.0,55,0.00,,---,0.00,VWS V14.01,2013-03-08 19:13:00,
2013-03-08 11:18:00,57.7,42.6,29.86,WSW,242,6.0,9.0,57,0.00,,---,0.00,VWS V14.01,2013-03-08 19:18:00,
2013-03-08 11:23:00,57.6,41.1,29.88,NW,322,4.0,9.0,54,0.00,,---,0.00,VWS V14.01,2013-03-08 19:23:00,
2013-03-08 11:28:00,57.8,39.8,29.87,SW,223,3.0,12.0,51,0.00,,---,0.00,VWS V14.01,2013-03-08 19:28:00,
2013-03-08 11:33:00,57.8,38.8,29.91,WSW,238,4.0,8.0,49,0.00,,---,0.00,VWS V14.01,2013-03-08 19:33:00,
2013-03-08 11:38:00,57.6,39.6,29.85,WNW,297,4.0,9.0,51,0.00,,---,0.00,VWS V14.01,2013-03-08 19:38:00,
2013-03-08 11:43:00,57.6,40.1,29.88,NW,320,4.0,9.0,52,0.00,,---,0.00,VWS V14.01,2013-03-08 19:43:00,
2013-03-08 11:48:00,57.9,40.9,29.88,NW,319,3.0,9.0,53,0.00,,---,0.00,VWS V14.01,2013-03-08 19:48:00,
2013-03-08 11:53:00,57.4,39.9,29.86,NW,308,1.0,9.0,52,0.00,,---,0.00,VWS V14.01,2013-03-08 19:53:00,
2013-03-08 11:58:00,57.4,39.9,29.87,WNW,293,0.0,9.0,52,0.00,,---,0.00,VWS V14.01,2013-03-08 19:58:00,
2013-03-08 12:03:00,57.3,38.8,29.90,SW,216,7.0,9.0,50,0.00,,---,0.00,VWS V14.01,2013-03-08 20:03:00,
2013-03-08 12:08:00,57.1,38.7,29.90,WNW,298,3.0,9.0,50,0.00,,---,0.00,VWS V14.01,2013-03-08 20:08:00,
2013-03-08 12:13:00,57.0,40.5,29.88,SW,235,4.0,11.0,54,0.00,,---,0.00,VWS V14.01,2013-03-08 20:13:00,
2013-03-08 12:19:00,56.4,40.9,29.89,West,274,3.0,11.0,56,0.00,,---,0.00,VWS V14.01,2013-03-08 20:19:00,
2013-03-08 12:24:00,55.8,41.3,29.89,SSW,213,4.0,13.0,58,0.00,,---,0.00,VWS V14.01,2013-03-08 20:24:00,
2013-03-08 12:29:00,55.2,41.1,29.86,SW,214,4.0,13.0,59,0.00,,---,0.00,VWS V14.01,2013-03-08 20:29:00,
2013-03-08 12:34:00,54.8,41.6,29.87,WSW,242,2.0,10.0,61,0.00,,---,0.00,VWS V14.01,2013-03-08 20:34:00,
2013-03-08 12:39:00,54.8,42.0,29.87,WSW,241,2.0,10.0,62,0.00,,---,0.00,VWS V14.01,2013-03-08 20:39:00,
2013-03-08 12:44:00,55.2,41.6,29.87,WNW,303,2.0,10.0,60,0.00,,---,0.00,VWS V14.01,2013-03-08 20:44:00,
2013-03-08 12:49:00,56.1,41.5,29.86,SSW,208,3.0,10.0,58,0.00,,---,0.00,VWS V14.01,2013-03-08 20:49:00,
2013-03-08 12:54:00,57.0,41.9,29.85,SW,231,6.0,10.0,57,0.00,,---,0.00,VWS V14.01,2013-03-08 20:54:00,
2013-03-08 12:59:00,57.6,42.5,29.88,NW,312,7.0,10.0,57,0.00,,---,0.00,VWS V14.01,2013-03-08 20:59:00,
2013-03-08 13:04:00,58.2,41.2,29.87,West,267,3.0,11.0,53,0.00,,---,0.00,VWS V14.01,2013-03-08 21:04:00,
2013-03-08 13:09:00,58.5,41.5,29.86,SSW,211,4.0,11.0,53,0.00,,---,0.00,VWS V14.01,2013-03-08 21:09:00,
2013-03-08 13:14:00,58.5,42.9,29.87,West,270,6.0,11.0,56,0.00,,---,0.00,VWS V14.01,2013-03-08 21:14:00,
2013-03-08 13:19:00,58.7,43.1,29.84,SW,227,3.0,12.0,56,0.00,,---,0.00,VWS V14.01,2013-03-08 21:19:00,
2013-03-08 13:24:00,58.5,42.9,29.87,West,271,1.0,14.0,56,0.00,,---,0.00,VWS V14.01,2013-03-08 21:24:00,
2013-03-08 13:29:00,58.5,42.9,29.89,West,262,6.0,14.0,56,0.00,,---,0.00,VWS V14.01,2013-03-08 21:29:00,
2013-03-08 13:35:00,58.4,44.1,29.87,SSW,213,4.0,13.0,59,0.00,,---,0.00,VWS V14.01,2013-03-08 21:35:00,
2013-03-08 13:40:00,58.5,44.2,29.86,SSW,211,4.0,14.0,59,0.00,,---,0.00,VWS V14.01,2013-03-08 21:40:00,
2013-03-08 13:45:00,58.6,43.9,29.87,West,269,6.0,14.0,58,0.00,,---,0.00,VWS V14.01,2013-03-08 21:45:00,
2013-03-08 13:50:00,58.7,44.9,29.88,SSW,207,6.0,14.0,60,0.00,,---,0.00,VWS V14.01,2013-03-08 21:50:00,
2013-03-08 13:55:00,59.0,44.7,29.85,SW,223,10.0,14.0,59,0.00,,---,0.00,VWS V14.01,2013-03-08 21:55:00,
2013-03-08 14:00:00,59.0,46.0,29.85,SW,214,5.0,6.0,62,0.00,,---,0.00,VWS V14.01,2013-03-08 22:00:00,
2013-03-08 14:05:00,58.8,45.0,29.85,WSW,246,4.0,12.0,60,0.00,,---,0.00,VWS V14.01,2013-03-08 22:05:00,
2013-03-08 14:10:00,58.7,43.5,29.86,SW,223,6.0,12.0,57,0.00,,---,0.00,VWS V14.01,2013-03-08 22:10:00,
2013-03-08 14:15:00,58.7,45.3,29.87,West,259,2.0,12.0,61,0.00,,---,0.00,VWS V14.01,2013-03-08 22:15:00,
2013-03-08 14:20:00,58.7,44.0,29.87,WSW,245,2.0,14.0,58,0.00,,---,0.00,VWS V14.01,2013-03-08 22:20:00,
2013-03-08 14:25:00,58.5,44.2,29.89,SW,236,2.0,14.0,59,0.00,,---,0.00,VWS V14.01,2013-03-08 22:25:00,
2013-03-08 14:31:00,58.5,43.8,29.88,SW,232,5.0,12.0,58,0.00,,---,0.00,VWS V14.01,2013-03-08 22:31:00,
2013-03-08 14:36:00,58.7,44.0,29.88,SW,219,7.0,15.0,58,0.00,,---,0.00,VWS V14.01,2013-03-08 22:36:00,
2013-03-08 14:41:00,58.7,43.5,29.86,SW,222,7.0,15.0,57,0.00,,---,0.00,VWS V14.01,2013-03-08 22:41:00,
2013-03-08 14:46:00,59.0,44.3,29.89,SW,226,12.0,15.0,58,0.00,,---,0.00,VWS V14.01,2013-03-08 22:46:00,
2013-03-08 14:51:00,58.6,43.4,29.89,SSW,211,6.0,15.0,57,0.00,,---,0.00,VWS V14.01,2013-03-08 22:51:00,
2013-03-08 14:56:00,58.7,44.0,29.88,SW,218,5.0,15.0,58,0.00,,---,0.00,VWS V14.01,2013-03-08 22:56:00,
2013-03-08 15:01:00,58.5,43.8,29.86,SSW,202,6.0,14.0,58,0.00,,---,0.00,VWS V14.01,2013-03-08 23:01:00,
2013-03-08 15:06:00,58.2,44.0,29.86,SW,214,7.0,14.0,59,0.00,,---,0.00,VWS V14.01,2013-03-08 23:06:00,
2013-03-08 15:11:00,58.1,43.4,29.90,SW,233,7.0,14.0,58,0.00,,---,0.00,VWS V14.01,2013-03-08 23:11:00,
2013-03-08 15:16:00,58.0,43.3,29.89,WSW,252,5.0,14.0,58,0.00,,---,0.00,VWS V14.01,2013-03-08 23:16:00,
2013-03-08 15:21:00,58.0,43.8,29.86,WSW,243,4.0,14.0,59,0.00,,---,0.00,VWS V14.01,2013-03-08 23:21:00,
2013-03-08 15:26:00,58.2,44.0,29.90,NNW,329,3.0,14.0,59,0.00,,---,0.00,VWS V14.01,2013-03-08 23:26:00,
2013-03-08 15:32:00,58.1,43.4,29.89,SW,223,4.0,9.0,58,0.00,,---,0.00,VWS V14.01,2013-03-08 23:32:00,
2013-03-08 15:37:00,58.7,44.4,29.90,SW,232,5.0,9.0,59,0.00,,---,0.00,VWS V14.01,2013-03-08 23:37:00,
2013-03-08 15:42:00,59.3,44.1,29.89,NW,305,1.0,11.0,57,0.00,,---,0.00,VWS V14.01,2013-03-08 23:42:00,
2013-03-08 15:47:00,59.3,44.5,29.88,SW,228,5.0,12.0,58,0.00,,---,0.00,VWS V14.01,2013-03-08 23:47:00,
2013-03-08 15:52:00,59.3,44.1,29.91,WNW,301,4.0,13.0,57,0.00,,---,0.00,VWS V14.01,2013-03-08 23:52:00,
2013-03-08 15:57:00,59.3,44.5,29.90,WSW,252,4.0,13.0,58,0.00,,---,0.00,VWS V14.01,2013-03-08 23:57:00,
2013-03-08 16:02:00,59.2,44.5,29.91,SW,225,4.0,4.0,58,0.00,,---,0.00,VWS V14.01,2013-03-09 00:02:00,
2013-03-08 16:07:00,59.2,44.5,29.90,SW,224,3.0,9.0,58,0.00,,---,0.00,VWS V14.01,2013-03-09 00:07:00,
2013-03-08 16:12:00,58.7,44.0,29.87,West,280,2.0,11.0,58,0.00,,---,0.00,VWS V14.01,2013-03-09 00:12:00,
2013-03-08 16:17:00,58.7,44.0,29.90,WSW,241,7.0,11.0,58,0.00,,---,0.00,VWS V14.01,2013-03-09 00:17:00,
2013-03-08 16:22:00,58.5,43.8,29.90,SW,217,8.0,11.0,58,0.00,,---,0.00,VWS V14.01,2013-03-09 00:22:00,
2013-03-08 16:27:00,58.1,43.4,29.91,SW,219,4.0,11.0,58,0.00,,---,0.00,VWS V14.01,2013-03-09 00:27:00,
2013-03-08 16:32:00,57.7,43.0,29.90,WSW,239,3.0,7.0,58,0.00,,---,0.00,VWS V14.01,2013-03-09 00:32:00,
2013-03-08 16:37:00,57.5,43.3,29.90,SW,235,8.0,14.0,59,0.00,,---,0.00,VWS V14.01,2013-03-09 00:37:00,
2013-03-08 16:42:00,56.9,42.7,29.89,SW,236,2.0,14.0,59,0.00,,---,0.00,VWS V14.01,2013-03-09 00:42:00,
2013-03-08 16:47:00,56.5,42.8,29.92,West,274,5.0,14.0,60,0.00,,---,0.00,VWS V14.01,2013-03-09 00:47:00,
2013-03-08 16:53:00,56.0,42.3,29.89,SW,217,8.0,14.0,60,0.00,,---,0.00,VWS V14.01,2013-03-09 00:53:00,
2013-03-08 16:58:00,55.5,42.7,29.89,WSW,245,9.0,14.0,62,0.00,,---,0.00,VWS V14.01,2013-03-09 00:58:00,
2013-03-08 17:03:00,54.9,42.1,29.92,SW,229,5.0,9.0,62,0.00,,---,0.00,VWS V14.01,2013-03-09 01:03:00,
2013-03-08 17:08:00,54.5,42.6,29.92,SW,220,4.0,9.0,64,0.00,,---,0.00,VWS V14.01,2013-03-09 01:08:00,
2013-03-08 17:13:00,54.1,42.2,29.91,SW,218,2.0,10.0,64,0.00,,---,0.00,VWS V14.01,2013-03-09 01:13:00,
2013-03-08 17:18:00,53.7,42.2,29.90,SSW,194,5.0,10.0,65,0.00,,---,0.00,VWS V14.01,2013-03-09 01:18:00,
2013-03-08 17:23:00,53.4,41.9,29.92,SW,225,4.0,10.0,65,0.00,,---,0.00,VWS V14.01,2013-03-09 01:23:00,
2013-03-08 17:28:00,52.9,41.9,29.94,WSW,238,2.0,10.0,66,0.00,,---,0.00,VWS V14.01,2013-03-09 01:28:00,
2013-03-08 17:33:00,52.6,42.0,29.91,SW,228,6.0,8.0,67,0.00,,---,0.00,VWS V14.01,2013-03-09 01:33:00,
2013-03-08 17:38:00,52.0,41.4,29.93,SW,219,3.0,8.0,67,0.00,,---,0.00,VWS V14.01,2013-03-09 01:38:00,
2013-03-08 17:43:00,51.5,40.9,29.92,West,277,1.0,8.0,67,0.00,,---,0.00,VWS V14.01,2013-03-09 01:43:00,
2013-03-08 17:48:00,51.4,41.6,29.94,West,269,0.0,8.0,69,0.00,,---,0.00,VWS V14.01,2013-03-09 01:48:00,
2013-03-08 17:53:00,50.9,41.1,29.91,WSW,253,4.0,8.0,69,0.00,,---,0.00,VWS V14.01,2013-03-09 01:53:00,
2013-03-08 17:58:00,50.9,41.5,29.93,WSW,253,0.0,8.0,70,0.00,,---,0.00,VWS V14.01,2013-03-09 01:58:00,
2013-03-08 18:03:00,50.3,40.9,29.93,WSW,251,3.0,5.0,70,0.00,,---,0.00,VWS V14.01,2013-03-09 02:03:00,
2013-03-08 18:08:00,50.1,40.7,29.92,WSW,247,0.0,6.0,70,0.00,,---,0.00,VWS V14.01,2013-03-09 02:08:00,
2013-03-08 18:13:00,49.8,40.8,29.95,WSW,248,0.0,6.0,71,0.00,,---,0.00,VWS V14.01,2013-03-09 02:13:00,
2013-03-08 18:18:00,49.5,40.5,29.95,WSW,247,2.0,6.0,71,0.00,,---,0.00,VWS V14.01,2013-03-09 02:18:00,
2013-03-08 18:23:00,49.2,40.6,29.96,WSW,247,1.0,6.0,72,0.00,,---,0.00,VWS V14.01,2013-03-09 02:23:00,
2013-03-08 18:28:00,49.0,40.4,29.95,WSW,247,1.0,6.0,72,0.00,,---,0.00,VWS V14.01,2013-03-09 02:28:00,
2013-03-08 18:33:00,48.9,40.3,29.95,WSW,246,1.0,5.0,72,0.00,,---,0.00,VWS V14.01,2013-03-09 02:33:00,
2013-03-08 18:38:00,48.6,40.7,29.95,SW,220,2.0,7.0,74,0.00,,---,0.00,VWS V14.01,2013-03-09 02:38:00,
2013-03-08 18:44:00,48.5,40.6,29.95,SW,220,2.0,7.0,74,0.00,,---,0.00,VWS V14.01,2013-03-09 02:44:00,
2013-03-08 18:49:00,48.4,40.5,29.96,SW,220,1.0,7.0,74,0.00,,---,0.00,VWS V14.01,2013-03-09 02:49:00,
2013-03-08 18:54:00,48.2,40.3,29.97,SW,223,2.0,7.0,74,0.00,,---,0.00,VWS V14.01,2013-03-09 02:54:00,
2013-03-08 18:59:00,48.1,40.2,29.96,SW,223,2.0,7.0,74,0.00,,---,0.00,VWS V14.01,2013-03-09 02:59:00,
2013-03-08 19:04:00,47.9,40.4,29.96,SW,223,2.0,5.0,75,0.00,,---,0.00,VWS V14.01,2013-03-09 03:04:00,
2013-03-08 19:09:00,47.7,40.2,29.95,South,172,1.0,6.0,75,0.00,,---,0.00,VWS V14.01,2013-03-09 03:09:00,
2013-03-08 19:14:00,47.6,40.4,29.94,SSW,203,1.0,6.0,76,0.00,,---,0.00,VWS V14.01,2013-03-09 03:14:00,
2013-03-08 19:19:00,47.4,40.6,29.97,SSW,212,2.0,7.0,77,0.00,,---,0.00,VWS V14.01,2013-03-09 03:19:00,
2013-03-08 19:24:00,47.4,40.6,29.98,SSW,212,1.0,7.0,77,0.00,,---,0.00,VWS V14.01,2013-03-09 03:24:00,
2013-03-08 19:29:00,47.3,40.5,29.97,SSW,213,1.0,7.0,77,0.00,,---,0.00,VWS V14.01,2013-03-09 03:29:00,
2013-03-08 19:34:00,47.3,40.5,29.99,SSW,213,0.0,4.0,77,0.00,,---,0.00,VWS V14.01,2013-03-09 03:34:00,
2013-03-08 19:40:00,47.2,40.0,29.95,SSW,213,1.0,4.0,76,0.00,,---,0.00,VWS V14.01,2013-03-09 03:40:00,
2013-03-08 19:45:00,47.2,40.4,29.97,SSW,213,0.0,4.0,77,0.00,,---,0.00,VWS V14.01,2013-03-09 03:45:00,
2013-03-08 19:50:00,47.0,40.2,29.96,SSW,213,0.0,4.0,77,0.00,,---,0.00,VWS V14.01,2013-03-09 03:50:00,
2013-03-08 19:55:00,47.0,40.2,30.00,SSW,213,0.0,4.0,77,0.00,,---,0.00,VWS V14.01,2013-03-09 03:55:00,
2013-03-08 20:00:00,47.0,39.8,29.96,SSW,213,0.0,0.0,76,0.00,,---,0.00,VWS V14.01,2013-03-09 04:00:00,
2013-03-08 20:05:00,46.9,40.1,29.99,SSW,213,0.0,1.0,77,0.00,,---,0.00,VWS V14.01,2013-03-09 04:05:00,
2013-03-08 20:10:00,46.9,39.7,29.99,SSW,213,0.0,1.0,76,0.00,,---,0.00,VWS V14.01,2013-03-09 04:10:00,
2013-03-08 20:15:00,46.7,39.9,29.99,SSW,213,1.0,1.0,77,0.00,,---,0.00,VWS V14.01,2013-03-09 04:15:00,
2013-03-08 20:20:00,46.6,39.8,29.98,SSW,213,0.0,3.0,77,0.00,,---,0.00,VWS V14.01,2013-03-09 04:20:00,
2013-03-08 20:25:00,46.5,40.0,30.02,SSW,213,0.0,3.0,78,0.00,,---,0.00,VWS V14.01,2013-03-09 04:25:00,
2013-03-08 20:30:00,46.2,39.4,29.99,SSW,213,0.0,0.0,77,0.00,,---,0.00,VWS V14.01,2013-03-09 04:30:00,
2013-03-08 20:35:00,46.0,39.5,30.01,SSW,213,0.0,2.0,78,0.00,,---,0.00,VWS V14.01,2013-03-09 04:35:00,
2013-03-08 20:40:00,45.7,39.2,30.01,SSW,213,0.0,2.0,78,0.00,,---,0.00,VWS V14.01,2013-03-09 04:40:00,
2013-03-08 20:45:00,45.7,39.6,30.00,SSW,213,0.0,3.0,79,0.00,,---,0.00,VWS V14.01,2013-03-09 04:45:00,
2013-03-08 20:50:00,45.4,39.0,29.99,SSW,213,0.0,3.0,78,0.00,,---,0.00,VWS V14.01,2013-03-09 04:50:00,
2013-03-08 20:55:00,45.3,39.2,30.04,SSW,213,0.0,3.0,79,0.00,,---,0.00,VWS V14.01,2013-03-09 04:55:00,
2013-03-08 21:00:00,45.1,39.3,30.02,SSW,213,0.0,3.0,80,0.00,,---,0.00,VWS V14.01,2013-03-09 05:00:00,
2013-03-08 21:01:00,45.1,39.3,30.01,SSW,213,0.0,2.0,80,0.00,,---,0.00,VWS V14.01,2013-03-09 05:01:00,
2013-03-08 21:06:00,45.2,39.4,30.03,SSW,213,0.0,2.0,80,0.00,,---,0.00,VWS V14.01,2013-03-09 05:06:00,
2013-03-08 21:11:00,45.1,39.3,30.01,SSW,213,0.0,2.0,80,0.00,,---,0.00,VWS V14.01,2013-03-09 05:11:00,
2013-03-08 21:16:00,45.0,39.5,29.99,SSW,213,1.0,2.0,81,0.00,,---,0.00,VWS V14.01,2013-03-09 05:16:00,
2013-03-08 21:21:00,44.8,39.3,30.01,SSW,213,1.0,2.0,81,0.00,,---,0.00,VWS V14.01,2013-03-09 05:21:00,
2013-03-08 21:26:00,44.6,39.1,30.04,SSW,213,0.0,3.0,81,0.00,,---,0.00,VWS V14.01,2013-03-09 05:26:00,
2013-03-08 21:31:00,44.4,38.9,30.03,SSW,213,1.0,3.0,81,0.00,,---,0.00,VWS V14.01,2013-03-09 05:31:00,
2013-03-08 21:37:00,44.4,38.9,30.00,SSW,213,1.0,3.0,81,0.00,,---,0.00,VWS V14.01,2013-03-09 05:37:00,
2013-03-08 21:42:00,44.1,38.7,30.01,SSW,213,0.0,3.0,81,0.00,,---,0.00,VWS V14.01,2013-03-09 05:42:00,
2013-03-08 21:47:00,43.9,38.1,30.00,SSW,213,0.0,3.0,80,0.00,,---,0.00,VWS V14.01,2013-03-09 05:47:00,
2013-03-08 21:52:00,43.6,37.8,30.02,SSW,213,0.0,3.0,80,0.00,,---,0.00,VWS V14.01,2013-03-09 05:52:00,
2013-03-08 21:57:00,43.5,38.1,30.03,SSW,213,0.0,3.0,81,0.00,,---,0.00,VWS V14.01,2013-03-09 05:57:00,
2013-03-08 22:02:00,43.3,37.9,30.03,SSW,213,0.0,0.0,81,0.00,,---,0.00,VWS V14.01,2013-03-09 06:02:00,
2013-03-08 22:07:00,43.2,38.1,30.04,SSW,213,0.0,3.0,82,0.00,,---,0.00,VWS V14.01,2013-03-09 06:07:00,
2013-03-08 22:12:00,43.2,37.8,30.01,SSW,213,0.0,3.0,81,0.00,,---,0.00,VWS V14.01,2013-03-09 06:12:00,
2013-03-08 22:17:00,43.0,37.9,30.03,SSW,213,0.0,3.0,82,0.00,,---,0.00,VWS V14.01,2013-03-09 06:17:00,
2013-03-08 22:22:00,42.9,37.5,30.03,SSW,213,0.0,3.0,81,0.00,,---,0.00,VWS V14.01,2013-03-09 06:22:00,
2013-03-08 22:27:00,42.6,37.2,30.04,SSW,213,0.0,3.0,81,0.00,,---,0.00,VWS V14.01,2013-03-09 06:27:00,
2013-03-08 22:32:00,42.3,36.9,30.04,SSW,213,3.0,3.0,81,0.00,,---,0.00,VWS V14.01,2013-03-09 06:32:00,
2013-03-08 22:37:00,42.2,37.4,30.06,SSW,213,2.0,5.0,83,0.00,,---,0.00,VWS V14.01,2013-03-09 06:37:00,
2013-03-08 22:42:00,42.2,37.7,30.03,SSW,213,3.0,5.0,84,0.00,,---,0.00,VWS V14.01,2013-03-09 06:42:00,
2013-03-08 22:47:00,42.2,37.4,30.01,SSW,213,2.0,5.0,83,0.00,,---,0.00,VWS V14.01,2013-03-09 06:47:00,
2013-03-08 22:52:00,42.0,37.2,30.05,SSW,213,2.0,5.0,83,0.00,,---,0.00,VWS V14.01,2013-03-09 06:52:00,
2013-03-08 22:57:00,42.1,37.6,30.05,SSW,213,0.0,5.0,84,0.00,,---,0.00,VWS V14.01,2013-03-09 06:57:00,
2013-03-08 23:02:00,41.9,37.1,30.02,SSW,213,4.0,5.0,83,0.00,,---,0.00,VWS V14.01,2013-03-09 07:02:00,
2013-03-08 23:08:00,41.9,37.4,30.03,SSW,213,0.0,5.0,84,0.00,,---,0.00,VWS V14.01,2013-03-09 07:08:00,
2013-03-08 23:13:00,41.8,37.0,30.03,SSW,213,4.0,5.0,83,0.00,,---,0.00,VWS V14.01,2013-03-09 07:13:00,
2013-03-08 23:18:00,41.6,37.1,30.06,SSW,213,0.0,5.0,84,0.00,,---,0.00,VWS V14.01,2013-03-09 07:18:00,
2013-03-08 23:23:00,41.4,36.6,30.06,SSW,213,0.0,5.0,83,0.00,,---,0.00,VWS V14.01,2013-03-09 07:23:00,
2013-03-08 23:28:00,41.2,36.4,30.07,SSW,213,0.0,5.0,83,0.00,,---,0.00,VWS V14.01,2013-03-09 07:28:00,
2013-03-08 23:33:00,41.1,36.3,30.03,SSW,213,1.0,2.0,83,0.00,,---,0.00,VWS V14.01,2013-03-09 07:33:00,
2013-03-08 23:38:00,41.1,36.6,30.06,SSW,213,0.0,3.0,84,0.00,,---,0.00,VWS V14.01,2013-03-09 07:38:00,
2013-03-08 23:43:00,40.9,36.5,30.05,SSW,213,2.0,3.0,84,0.00,,---,0.00,VWS V14.01,2013-03-09 07:43:00,
2013-03-08 23:48:00,40.8,36.3,30.03,SSW,213,0.0,3.0,84,0.00,,---,0.00,VWS V14.01,2013-03-09 07:48:00,
2013-03-08 23:53:00,40.7,36.5,30.03,SSW,213,3.0,5.0,85,0.00,,---,0.00,VWS V14.01,2013-03-09 07:53:00,
2013-03-08 23:58:00,40.6,36.2,30.05,SSW,213,1.0,5.0,84,0.00,,---,0.00,VWS V14.01,2013-03-09 07:58:00,